Time,TemperatureF,DewpointF,PressureIn,WindDirection,WindDirectionDegrees,WindSpeedMPH,WindSpeedGustMPH,Humidity,HourlyPrecipIn,Conditions,Clouds,dailyrainin,SolarRadiationWatts/m^2,SoftwareType,DateUTC
2013-08-15 00:23:00,76.0,57.0,-100.00,WSW,240,4.0,13.0,52,0.00,,,0.16,362.000000,,2013-08-15 00:23:00,
2013-08-15 00:32:00,76.0,57.0,-100.00,WSW,240,4.0,13.0,52,0.00,,,0.16,362.000000,,2013-08-15 00:32:00,
2013-08-15 00:43:00,76.0,57.0,-100.00,WSW,240,4.0,13.0,52,0.00,,,0.16,362.000000,,2013-08-15 00:43:00,
2013-08-15 00:52:00,76.0,57.0,-100.00,WSW,240,4.0,13.0,52,0.00,,,0.16,362.000000,,2013-08-15 00:52:00,
2013-08-15 01:22:00,71.0,57.0,-100.00,NNW,330,6.0,11.0,61,0.00,,,0.16,162.000000,,2013-08-15 01:22:00,
2013-08-15 01:32:00,71.0,57.0,-100.00,NNW,330,6.0,11.0,61,0.00,,,0.16,162.000000,,2013-08-15 01:32:00,
2013-08-15 01:42:00,71.0,57.0,-100.00,NNW,330,6.0,11.0,61,0.00,,,0.16,162.000000,,2013-08-15 01:42:00,
2013-08-15 01:52:00,71.0,57.0,-100.00,NNW,330,6.0,11.0,61,0.00,,,0.16,162.000000,,2013-08-15 01:52:00,
2013-08-15 02:21:00,68.0,57.0,-100.00,West,272,6.0,14.0,67,0.00,,,0.10,11.000000,,2013-08-15 02:21:00,
2013-08-15 02:31:00,68.0,57.0,-100.00,West,272,6.0,14.0,67,0.00,,,0.10,11.000000,,2013-08-15 02:31:00,
2013-08-15 02:42:00,68.0,57.0,-100.00,West,272,6.0,14.0,67,0.00,,,0.10,11.000000,,2013-08-15 02:42:00,
2013-08-15 02:52:00,68.0,57.0,-100.00,West,272,6.0,14.0,67,0.00,,,0.10,11.000000,,2013-08-15 02:52:00,
2013-08-15 03:43:00,57.0,51.0,-100.00,NNW,333,4.0,24.0,79,0.15,,,0.24,1.000000,,2013-08-15 03:43:00,
2013-08-15 03:53:00,57.0,51.0,-100.00,NNW,333,4.0,24.0,79,0.15,,,0.24,1.000000,,2013-08-15 03:53:00,
2013-08-15 04:23:00,65.0,44.0,-100.00,ESE,121,3.0,9.0,47,0.01,,,0.19,0.000000,,2013-08-15 04:23:00,
2013-08-15 04:32:00,65.0,44.0,-100.00,ESE,121,3.0,9.0,47,0.01,,,0.19,0.000000,,2013-08-15 04:32:00,
2013-08-15 04:43:00,65.0,44.0,-100.00,ESE,121,3.0,9.0,47,0.01,,,0.19,0.000000,,2013-08-15 04:43:00,
2013-08-15 04:52:00,65.0,44.0,-100.00,ESE,121,3.0,9.0,47,0.01,,,0.19,0.000000,,2013-08-15 04:52:00,
2013-08-15 05:22:00,60.0,51.0,-100.00,SW,218,3.0,8.0,71,0.00,,,0.16,0.000000,,2013-08-15 05:22:00,
2013-08-15 05:32:00,60.0,51.0,-100.00,SW,218,3.0,8.0,71,0.00,,,0.16,0.000000,,2013-08-15 05:32:00,
2013-08-15 05:42:00,60.0,51.0,-100.00,SW,218,3.0,8.0,71,0.00,,,0.16,0.000000,,2013-08-15 05:42:00,
2013-08-15 05:52:00,60.0,51.0,-100.00,SW,218,3.0,8.0,71,0.00,,,0.16,0.000000,,2013-08-15 05:52:00,
2013-08-15 06:21:00,61.0,50.0,-100.00,NE,34,7.0,9.0,67,0.00,,,0.16,0.000000,,2013-08-15 06:21:00,
2013-08-15 06:31:00,61.0,50.0,-100.00,NE,34,7.0,9.0,67,0.00,,,0.16,0.000000,,2013-08-15 06:31:00,
2013-08-15 06:42:00,61.0,50.0,-100.00,NE,34,7.0,9.0,67,0.00,,,0.16,0.000000,,2013-08-15 06:42:00,
2013-08-15 06:51:00,61.0,50.0,-100.00,NE,34,7.0,9.0,67,0.00,,,0.16,0.000000,,2013-08-15 06:51:00,
2013-08-15 07:21:00,61.0,48.0,-100.00,ENE,67,3.0,8.0,62,0.00,,,0.16,0.000000,,2013-08-15 07:21:00,
2013-08-15 07:32:00,61.0,48.0,-100.00,ENE,67,3.0,8.0,62,0.00,,,0.16,0.000000,,2013-08-15 07:32:00,
2013-08-15 07:42:00,61.0,48.0,-100.00,ENE,67,3.0,8.0,62,0.00,,,0.16,0.000000,,2013-08-15 07:42:00,
2013-08-15 07:52:00,61.0,48.0,-100.00,ENE,67,3.0,8.0,62,0.00,,,0.16,0.000000,,2013-08-15 07:52:00,
2013-08-15 08:21:00,59.0,51.0,-100.00,SSE,152,4.0,6.0,74,0.00,,,0.16,0.000000,,2013-08-15 08:21:00,
2013-08-15 08:33:00,59.0,51.0,-100.00,SSE,152,4.0,6.0,74,0.00,,,0.16,0.000000,,2013-08-15 08:33:00,
2013-08-15 08:42:00,59.0,51.0,-100.00,SSE,152,4.0,6.0,74,0.00,,,0.16,0.000000,,2013-08-15 08:42:00,
2013-08-15 08:52:00,59.0,51.0,-100.00,SSE,152,4.0,6.0,74,0.00,,,0.16,0.000000,,2013-08-15 08:52:00,
2013-08-15 09:21:00,63.0,45.0,-100.00,East,93,1.0,5.0,52,0.00,,,0.16,0.000000,,2013-08-15 09:21:00,
2013-08-15 09:33:00,63.0,45.0,-100.00,East,93,1.0,5.0,52,0.00,,,0.16,0.000000,,2013-08-15 09:33:00,
2013-08-15 09:42:00,63.0,45.0,-100.00,East,93,1.0,5.0,52,0.00,,,0.16,0.000000,,2013-08-15 09:42:00,
2013-08-15 09:53:00,63.0,45.0,-100.00,East,93,1.0,5.0,52,0.00,,,0.16,0.000000,,2013-08-15 09:53:00,
2013-08-15 10:22:00,57.0,51.0,-100.00,North,352,6.0,15.0,80,0.02,,,0.18,0.000000,,2013-08-15 10:22:00,
2013-08-15 10:32:00,57.0,51.0,-100.00,North,352,6.0,15.0,80,0.02,,,0.18,0.000000,,2013-08-15 10:32:00,
2013-08-15 10:42:00,57.0,51.0,-100.00,North,352,6.0,15.0,80,0.02,,,0.18,0.000000,,2013-08-15 10:42:00,
2013-08-15 10:52:00,57.0,51.0,-100.00,North,352,6.0,15.0,80,0.02,,,0.18,0.000000,,2013-08-15 10:52:00,
2013-08-15 11:22:00,60.0,46.0,-100.00,NNW,330,3.0,17.0,60,0.01,,,0.19,0.000000,,2013-08-15 11:22:00,
2013-08-15 11:32:00,60.0,46.0,-100.00,NNW,330,3.0,17.0,60,0.01,,,0.19,0.000000,,2013-08-15 11:32:00,
2013-08-15 11:42:00,60.0,46.0,-100.00,NNW,330,3.0,17.0,60,0.01,,,0.19,0.000000,,2013-08-15 11:42:00,
2013-08-15 11:51:00,60.0,46.0,-100.00,NNW,330,3.0,17.0,60,0.01,,,0.19,0.000000,,2013-08-15 11:51:00,
2013-08-15 12:21:00,62.0,45.0,-100.00,West,280,2.0,7.0,54,0.00,,,0.19,0.000000,,2013-08-15 12:21:00,
2013-08-15 12:31:00,62.0,45.0,-100.00,West,280,2.0,7.0,54,0.00,,,0.19,0.000000,,2013-08-15 12:31:00,
2013-08-15 12:42:00,62.0,45.0,-100.00,West,280,2.0,7.0,54,0.00,,,0.19,0.000000,,2013-08-15 12:42:00,
2013-08-15 12:52:00,62.0,45.0,-100.00,West,280,2.0,7.0,54,0.00,,,0.19,0.000000,,2013-08-15 12:52:00,
2013-08-15 13:21:00,60.0,48.0,-100.00,South,177,1.0,5.0,65,0.00,,,0.19,24.000000,,2013-08-15 13:21:00,
2013-08-15 13:32:00,60.0,48.0,-100.00,South,177,1.0,5.0,65,0.00,,,0.19,24.000000,,2013-08-15 13:32:00,
2013-08-15 13:42:00,60.0,48.0,-100.00,South,177,1.0,5.0,65,0.00,,,0.19,24.000000,,2013-08-15 13:42:00,
2013-08-15 13:52:00,60.0,48.0,-100.00,South,177,1.0,5.0,65,0.00,,,0.19,24.000000,,2013-08-15 13:52:00,
2013-08-15 14:22:00,61.0,50.0,-100.00,NW,325,2.0,4.0,67,0.00,,,0.19,87.000000,,2013-08-15 14:22:00,
2013-08-15 14:32:00,61.0,50.0,-100.00,NW,325,2.0,4.0,67,0.00,,,0.19,87.000000,,2013-08-15 14:32:00,
2013-08-15 14:53:00,61.0,50.0,-100.00,NW,325,2.0,4.0,67,0.00,,,0.19,87.000000,,2013-08-15 14:53:00,
2013-08-15 15:23:00,68.0,48.0,-100.00,NNE,18,2.0,6.0,48,0.00,,,0.19,317.000000,,2013-08-15 15:23:00,
2013-08-15 15:34:00,68.0,48.0,-100.00,NNE,18,2.0,6.0,48,0.00,,,0.19,317.000000,,2013-08-15 15:34:00,
2013-08-15 15:43:00,68.0,48.0,-100.00,NNE,18,2.0,6.0,48,0.00,,,0.19,317.000000,,2013-08-15 15:43:00,
2013-08-15 15:54:00,68.0,48.0,-100.00,NNE,18,2.0,6.0,48,0.00,,,0.19,317.000000,,2013-08-15 15:54:00,
2013-08-15 16:26:00,72.0,49.0,-100.00,WSW,258,3.0,7.0,44,0.00,,,-99.99,539.000000,,2013-08-15 16:26:00,
2013-08-15 16:35:00,72.0,49.0,-100.00,WSW,258,3.0,7.0,44,0.00,,,-99.99,539.000000,,2013-08-15 16:35:00,
2013-08-15 16:44:00,72.0,49.0,-100.00,WSW,258,3.0,7.0,44,0.00,,,-99.99,539.000000,,2013-08-15 16:44:00,
2013-08-15 16:55:00,72.0,49.0,-100.00,WSW,258,3.0,7.0,44,0.00,,,-99.99,539.000000,,2013-08-15 16:55:00,
2013-08-15 16:57:00,-999.0,-99.9,-100.00,WNW,292,3.0,8.0,-999,-99.99,,,-99.99,636.000000,,2013-08-15 16:57:00,
2013-08-15 17:30:00,75.0,-99.9,-100.00,WNW,292,3.0,8.0,41,0.00,,,0.19,636.000000,,2013-08-15 17:30:00,
2013-08-15 17:38:00,75.0,50.0,-100.00,WNW,292,3.0,8.0,41,0.00,,,0.19,636.000000,,2013-08-15 17:38:00,
2013-08-15 17:55:00,75.0,50.0,-100.00,WNW,292,3.0,8.0,41,0.00,,,0.19,636.000000,,2013-08-15 17:55:00,
2013-08-15 18:36:00,-999.0,-99.9,-100.00,WNW,296,5.0,10.0,-999,0.00,,,0.19,834.000000,,2013-08-15 18:36:00,
2013-08-15 18:49:00,77.0,48.0,-100.00,WNW,296,5.0,10.0,36,0.00,,,0.19,834.000000,,2013-08-15 18:49:00,
2013-08-15 18:57:00,80.0,51.0,-100.00,NNE,23,3.0,11.0,36,0.00,,,0.19,891.000000,,2013-08-15 18:57:00,
2013-08-15 19:34:00,-999.0,-99.9,-100.00,NNE,23,3.0,11.0,-999,-99.99,,,-99.99,891.000000,,2013-08-15 19:34:00,
2013-08-15 19:39:00,80.0,51.0,-100.00,NNE,23,3.0,11.0,36,0.00,,,0.19,891.000000,,2013-08-15 19:39:00,
2013-08-15 19:49:00,80.0,51.0,-100.00,NNE,23,3.0,11.0,36,0.00,,,0.19,891.000000,,2013-08-15 19:49:00,
2013-08-15 20:45:00,81.0,49.0,-100.00,WNW,289,7.0,11.0,33,0.00,,,0.19,898.000000,,2013-08-15 20:45:00,
2013-08-15 23:35:00,-999.0,-99.9,-100.00,NW,321,6.0,12.0,45,-99.99,,,0.19,602.000000,,2013-08-15 23:35:00,
2013-08-15 23:40:00,79.0,56.0,-100.00,NW,321,6.0,12.0,45,-99.99,,,0.19,602.000000,,2013-08-15 23:40:00,
2013-08-15 23:48:00,79.0,56.0,-100.00,NW,321,6.0,12.0,45,-99.99,,,0.19,602.000000,,2013-08-15 23:48:00,
2013-08-15 23:55:00,79.0,56.0,-100.00,NW,321,6.0,12.0,45,-99.99,,,0.19,602.000000,,2013-08-15 23:55:00,